Dewpoint
57 57 58 58 58 58 58 59 59 59 59 59 59 59 59 59 58 53 38 34 40 66 62 52 38 36 36 34 36 36 35 41 44 45 46 49 50 54 55 55 55 55 57 60 62
57 57 58 58 58 58 58 58 58 59 59 59 59 59 59 59 54 49 52 59 65 65 43 32 32 34 33 32 29 29 27 35 42 46 48 50 52 53 54 54 54 55 60 61 62
57 58 58 58 58 58 58 58 58 58 59 59 58 58 59 59 45 40 63 62 67 61 34 31 36 34 30 27 29 31 26 28 34 45 49 51 52 54 54 52 54 54 58 59 60
57 57 58 58 58 58 58 58 58 58 58 58 58 58 59 54 27 37 66 65 68 47 36 31 31 28 27 26 29 38 37 38 48 52 51 52 54 54 53 53 55 55 59 58 58
57 57 58 58 58 58 57 57 58 57 57 57 57 58 54 37 30 53 67 67 61 39 32 30 28 26 24 25 30 37 41 45 52 52 52 52 54 54 53 56 56 55 58 57 56
57 57 57 58 58 58 57 57 56 56 56 56 57 58 51 28 35 63 59 53 45 36 32 30 28 27 24 24 34 39 46 48 52 52 50 50 52 54 54 55 54 54 56 57 56
57 57 57 58 58 57 56 56 55 56 56 57 57 56 48 25 45 53 45 41 41 35 32 32 31 25 24 23 33 45 45 47 48 50 49 50 50 50 55 55 54 52 52 53 51
57 57 57 57 57 56 56 55 55 56 57 57 58 54 32 36 46 43 37 33 35 33 31 32 24 21 19 29 44 43 44 44 45 48 50 49 46 51 56 55 54 55 54 52 50
58 57 57 56 55 55 55 54 56 56 58 59 53 43 28 48 39 38 33 26 30 31 29 25 22 20 23 36 39 41 41 42 44 46 47 46 46 47 56 55 54 55 54 53 51
56 56 55 54 54 54 54 54 54 55 57 56 50 37 31 37 36 34 36 27 24 24 25 22 21 20 25 34 36 38 40 41 42 43 45 44 43 50 55 55 54 55 53 52 52
55 54 54 54 54 53 52 46 38 35 41 35 34 33 32 33 35 31 33 29 22 21 18 18 17 17 19 25 33 40 39 39 39 43 43 43 43 49 54 54 50 50 52 52 53
53 53 53 53 53 53 49 40 42 42 39 39 38 34 33 32 28 32 30 28 25 18 18 18 15 17 20 25 38 38 38 37 37 43 41 39 39 44 51 52 50 49 50 52 53
53 53 53 53 52 49 47 43 46 41 36 31 29 27 26 28 27 28 30 27 24 20 16 17 19 19 19 21 24 33 35 34 33 42 44 43 37 44 46 53 53 48 50 52 54
53 53 53 52 47 47 45 47 47 45 23 22 30 27 27 27 26 30 31 24 20 20 17 16 19 19 19 18 20 19 27 34 39 34 27 39 28 36 43 47 51 52 47 52 54
52 52 52 51 45 46 42 48 47 36 8 20 31 26 26 23 26 27 28 23 18 17 17 15 16 17 19 19 20 19 27 29 31 35 36 40 37 37 48 47 47 51 50 51 55
52 52 52 48 47 47 48 47 36 26 17 26 25 21 22 23 24 24 24 21 21 17 17 15 17 17 16 20 21 22 18 18 22 29 30 31 35 32 42 45 49 52 52 51 55
52 51 50 46 40 47 47 36 23 21 21 26 22 20 20 23 23 23 21 16 17 15 15 17 14 15 17 13 19 16 15 15 15 16 16 32 36 34 37 48 52 52 53 51 56
51 50 48 47 47 47 43 30 20 17 20 28 26 19 18 22 24 24 19 19 17 16 15 13 12 13 15 12 11 15 14 17 13 14 14 36 34 31 47 50 55 55 55 55 56
50 46 45 47 47 47 36 27 22 24 26 25 26 19 19 22 23 23 20 20 15 14 13 14 12 16 14 14 12 14 13 17 15 22 19 26 36 38 50 51 54 55 55 55 56
47 44 44 48 48 43 36 30 28 31 26 28 25 23 17 20 21 22 21 22 21 15 13 15 14 16 17 14 15 13 17 14 17 12 14 16 35 36 40 46 51 54 55 56 56
46 45 47 49 48 42 34 32 30 29 28 25 23 21 25 22 21 22 23 23 23 18 14 16 16 15 16 14 13 15 16 23 20 20 14 17 28 43 42 44 49 51 55 56 56
43 41 48 48 43 43 38 35 34 31 31 28 27 23 25 22 25 20 23 23 24 17 13 18 17 14 10 15 19 15 14 22 18 16 30 27 24 32 42 47 50 51 55 56 57
42 44 49 46 37 35 36 33 34 32 31 28 27 24 28 23 24 26 24 25 21 16 15 17 14 12 10 12 24 18 17 20 26 25 32 27 23 36 46 50 53 54 56 57 56
44 42 47 45 42 35 34 35 34 35 32 32 31 27 25 23 27 32 36 39 27 18 44 29 17 15 16 13 21 22 21 27 25 26 25 29 23 28 39 47 54 55 56 55 55
43 42 48 43 43 42 41 40 38 37 36 32 34 29 31 25 25 36 43 41 40 48 30 18 16 15 12 14 22 26 21 29 27 26 25 24 32 31 35 44 52 55 55 55 51
43 45 46 45 45 43 41 40 39 41 38 33 34 33 34 30 26 30 41 41 41 36 21 26 19 18 15 18 16 16 26 32 30 30 28 34 34 37 49 53 54 55 55 54 50
46 45 46 42 43 42 41 41 41 42 43 42 35 39 34 34 44 43 43 43 43 43 35 23 25 22 17 24 24 25 30 34 34 35 36 35 36 48 52 50 52 55 55 54 51
Lifted_Index
12 11 11 11 11 11 11 11 11 10 10 9 9 10 10 10 11 11 11 11 10 8 7 7 7 6 5 3 3 2 1 0 0 0 1 0 0 -0 -0 -1 -1 -1 -2 -2 -1
12 11 11 11 11 11 11 11 11 10 10 9 9 10 10 10 10 10 10 10 8 8 8 7 7 6 4 3 3 2 1 1 0 0 1 0 0 -0 -1 -1 -1 -1 -2 -2 -1
12 11 11 11 11 11 11 11 11 11 10 9 9 10 10 9 9 8 9 8 7 7 8 8 7 5 4 3 2 1 1 0 0 0 0 0 -0 -1 -1 -1 -1 -1 -2 -2 -1
12 12 11 11 11 11 11 11 11 11 11 10 10 10 10 9 7 7 7 7 7 7 8 7 6 4 3 2 1 1 0 0 0 0 0 -0 -0 -1 -1 -1 -1 -2 -2 -1 -1
12 12 12 11 11 11 12 12 12 12 12 11 10 10 10 9 7 6 6 6 7 8 7 6 4 3 2 2 2 1 0 -0 -0 -0 -0 -0 -1 -1 -1 -1 -2 -1 -1 -1 -1
11 12 12 11 11 11 12 12 13 13 13 12 11 10 9 9 8 6 6 7 8 8 6 5 4 3 3 3 3 2 0 -0 -1 -1 -1 -1 -1 -1 -1 -1 -1 -1 -1 -1 -1
11 11 11 11 11 11 12 12 13 13 13 12 11 10 9 9 8 7 7 8 8 8 7 5 4 4 4 4 3 2 0 -1 -1 -1 -1 -1 -1 -1 -1 -1 -1 -1 -1 -1 -1
11 11 11 11 11 11 12 12 13 13 12 11 10 9 9 9 8 7 7 8 8 8 8 6 5 4 4 4 2 1 0 -0 -1 -1 -2 -2 -2 -1 -2 -2 -2 -1 -1 -1 -1
11 11 11 11 11 11 12 12 12 11 11 10 10 9 9 8 7 7 7 8 8 8 8 7 5 4 4 3 1 0 0 -1 -1 -2 -2 -2 -2 -2 -2 -2 -2 -1 -1 -1 -1
11 11 11 11 11 11 12 12 11 10 10 10 10 9 9 7 7 7 7 8 8 7 7 6 5 3 3 2 1 0 -0 -1 -2 -2 -2 -2 -2 -2 -2 -2 -2 -1 -1 -1 -1
12 11 11 11 11 12 12 11 10 10 10 10 10 9 9 7 7 7 7 8 8 6 6 5 4 2 2 2 1 0 -1 -1 -1 -2 -2 -2 -2 -1 -1 -2 -1 -1 -1 -1 -1
12 12 12 11 11 12 12 11 11 10 9 9 10 10 9 8 7 7 7 7 7 6 6 5 3 2 2 1 1 -0 -1 -1 -1 -1 -1 -2 -1 -0 -1 -1 -1 -0 -0 -1 -1
12 12 12 11 11 12 12 11 11 10 9 8 9 9 9 8 8 7 7 6 6 6 6 5 4 2 1 1 0 -0 -1 -1 -1 -1 -1 -1 0 0 0 -0 0 -0 -0 -1 -1
12 12 12 11 11 12 12 11 10 9 7 6 7 8 9 9 8 7 6 6 6 6 6 6 4 2 1 1 1 0 -1 -1 -1 -1 -0 0 1 1 1 0 0 -0 -1 -1 -1
13 13 12 11 11 12 12 11 10 7 5 5 7 8 9 8 8 7 6 6 6 6 6 6 5 3 1 1 1 1 -0 -1 -1 -0 0 1 1 2 1 1 1 0 -1 -1 -0
14 14 13 12 11 11 11 10 9 6 4 5 6 7 7 7 7 7 6 6 6 5 5 6 5 4 2 2 2 1 0 -0 -0 0 1 1 1 2 2 1 1 -0 -1 -1 -0
14 14 13 12 11 11 11 9 7 6 5 5 6 6 6 7 7 7 6 6 6 5 4 5 5 5 4 2 2 2 1 0 0 1 1 1 2 2 2 1 0 -1 -1 -1 -1
14 14 12 11 11 11 10 9 7 6 6 6 6 6 6 6 7 6 6 6 6 5 4 3 4 5 5 3 2 2 1 1 0 1 1 2 2 2 2 1 -0 -1 -1 -1 -1
13 13 11 10 10 10 10 9 8 7 6 5 5 5 6 6 6 7 6 6 6 6 5 3 4 5 5 4 3 2 2 1 1 1 1 2 2 2 2 1 -0 -1 -1 -1 -1
12 11 9 8 8 9 10 9 8 7 5 4 4 4 5 5 6 6 7 6 6 6 6 5 4 4 5 5 4 3 3 2 1 1 1 2 2 2 2 1 0 -1 -1 -1 -1
10 8 6 6 6 7 8 8 8 7 6 4 4 3 4 5 6 6 6 6 6 6 6 6 5 4 4 5 4 4 3 3 2 1 1 1 2 2 2 1 -0 -1 -1 -1 -1
8 7 5 5 5 6 7 7 7 6 6 5 4 4 4 4 5 5 5 5 5 5 5 5 5 4 4 4 4 4 4 3 2 2 1 1 2 2 2 1 -1 -1 -1 -1 -1
7 5 4 3 3 4 5 6 6 6 5 5 5 4 4 3 3 4 4 4 4 5 5 5 4 3 3 4 4 4 4 3 2 2 1 1 1 2 2 0 -1 -2 -2 -2 -2
6 4 2 2 2 2 3 4 5 5 4 4 4 4 3 3 2 2 2 2 3 4 4 4 4 3 2 3 3 3 3 2 2 1 1 1 1 1 1 0 -1 -2 -2 -2 -2
5 3 1 0 0 1 2 3 4 3 3 3 3 3 2 2 1 1 0 0 1 2 3 3 3 3 2 3 3 3 2 1 1 1 1 0 1 1 1 0 -1 -2 -2 -2 -2
5 3 1 -1 -1 -0 1 2 2 2 2 2 2 2 2 2 1 0 -0 -1 -1 1 2 3 3 3 2 2 2 2 2 1 1 0 0 0 0 0 0 -0 -1 -1 -2 -2 -2
5 3 1 -1 -1 -0 1 2 2 2 1 2 2 3 2 2 1 0 -0 -1 -1 -1 1 2 3 2 2 2 2 2 2 1 0 0 -0 -0 -0 -0 -0 -1 -1 -1 -2 -3 -3